Content
SEND FEEDBACK

Daily
Averages
Monthly
Summary
United States of America

SUMMIT, ARKANSAS


Home > North America > United States > Arkansas
Elevation: 760 feet     Latitude: 36 13N     Longitude: 092 41W

WEATHER
 
SELECT A DAY
Number of Records: 414,624;   Date Range: 1/1/95 - 10/23/14
 
SHARE

PRINT THIS DATA

[ ← Previous Day ]
WEATHER ALMANAC - FEBRUARY 13, 2013
[ Next Day → ]
[ °C ]   °F
Weather ElementAverageHighLow
Temperature41.7 °F53.6 °F (3:15 pm)35.6 °F (12:35 am)
Dewpoint30.2 °F33.8 °F (10:15 am)26.6 °F (6:15 pm)
Humidity66.2 %81 % (12:35 am)38 % (3:55 pm)
Barometer29.94 in30.00 in (9:15 am)29.89 in (3:16 am)
Wind Speed6.2 mph16.1 mph (11:55 am)
Wind Gust20.7 mph (11:55 am)
Weather ElementAverage
Visibility9.8 mi
Wind DirectionSW (220.5 °)

Weather ElementTotal
Precipitation---
Heating Degree Days20.4 (Base 65)
Averaged from 40 records on February 13, 2013
WEATHER CONDITIONS BREAKOUT
WIND DIRECTION BREAKOUT
WEATHER BY HOUR - FEBRUARY 13, 2013
[ °C ]   °F
Local TimeTemperatureDewpointHumidityBarometerVisibilityWind DirectionWind SpeedGust SpeedPrecipitationEventsConditions
12:35 AM35.6 °F30.2 °F81 %29.92 in10.0 miNNW (340°)5.8 mphOvercast
12:56 AM35.6 °F30.2 °F81 %29.92 in10.0 miNorth (350°)5.8 mphOvercast
1:15 AM35.6 °F30.2 °F81 %29.91 in10.0 miNorth (350°)4.6 mphOvercast
2:15 AM35.6 °F30.2 °F81 %29.91 in10.0 miNorth (360°)4.6 mphOvercast
2:35 AM35.6 °F30.2 °F81 %29.91 in10.0 miNorth (10°)3.5 mphOvercast
2:55 AM35.6 °F30.2 °F81 %29.90 in10.0 miCalmOvercast
3:16 AM35.6 °F30.2 °F81 %29.89 in10.0 miNNW (330°)3.5 mphOvercast
3:35 AM35.6 °F30.2 °F81 %29.89 in10.0 miCalmOvercast
4:55 AM35.6 °F30.2 °F81 %29.92 in5.0 miNW (310°)5.8 mphOvercast
5:15 AM35.6 °F30.2 °F81 %29.92 in10.0 miWNW (300°)6.9 mphOvercast
5:55 AM35.6 °F30.2 °F81 %29.93 in10.0 miNW (310°)3.5 mphOvercast
6:55 AM35.6 °F30.2 °F81 %29.94 in10.0 miWNW (290°)3.5 mphOvercast
7:35 AM35.6 °F30.2 °F81 %29.96 in10.0 miWest (270°)4.6 mphOvercast
7:56 AM35.6 °F30.2 °F81 %29.97 in10.0 miWNW (290°)5.8 mphOvercast
8:15 AM35.6 °F30.2 °F81 %29.98 in10.0 miWest (260°)4.6 mphOvercast
8:35 AM35.6 °F30.2 °F81 %29.99 in7.0 miCalmOvercast
9:15 AM37.4 °F30.2 °F75 %30.00 in10.0 miSSW (210°)4.6 mphOvercast
9:35 AM37.4 °F32.0 °F81 %29.99 in10.0 miSouth (190°)4.6 mphOvercast
10:15 AM39.2 °F33.8 °F81 %29.99 in10.0 miSW (220°)5.8 mphScattered Clouds
11:15 AM44.6 °F33.8 °F66 %29.98 in10.0 miWSW (240°)8.1 mphMostly Cloudy
11:35 AM44.6 °F33.8 °F66 %29.97 in10.0 miWSW (240°)8.1 mphScattered Clouds
11:55 AM46.4 °F32.0 °F57 %29.96 in10.0 miWest (270°)16.1 mph20.7 mphPartly Cloudy
12:16 PM46.4 °F33.8 °F62 %29.96 in10.0 miSW (230°)10.4 mphClear
12:35 PM48.2 °F32.0 °F54 %29.94 in10.0 miSW (230°)11.5 mphClear
12:55 PM48.2 °F30.2 °F50 %29.94 in10.0 miWSW (250°)12.7 mph18.4 mphPartly Cloudy
1:15 PM48.2 °F30.2 °F50 %29.93 in10.0 miSW (230°)11.5 mph17.3 mphPartly Cloudy
1:35 PM51.8 °F32.0 °F47 %29.93 in10.0 miWSW (240°)16.1 mph20.7 mphPartly Cloudy
1:55 PM51.8 °F30.2 °F44 %29.93 in10.0 miWSW (240°)10.4 mph18.4 mphScattered Clouds
2:55 PM51.8 °F30.2 °F44 %29.91 in10.0 miWest (270°)10.4 mphPartly Cloudy
3:15 PM53.6 °F30.2 °F41 %29.90 in10.0 miWest (260°)10.4 mph16.1 mphPartly Cloudy
3:55 PM53.6 °F28.4 °F38 %29.90 in10.0 miWest (270°)11.5 mphClear
4:15 PM53.6 °F28.4 °F38 %29.90 in10.0 miWest (270°)11.5 mphClear
5:15 PM51.8 °F28.4 °F41 %29.91 in10.0 miWNW (290°)8.1 mphClear
6:15 PM48.2 °F26.6 °F43 %29.91 in10.0 miWNW (290°)3.5 mphClear
7:55 PM41.0 °F28.4 °F61 %29.93 in10.0 miCalmClear
8:35 PM39.2 °F28.4 °F65 %29.93 in10.0 miSSW (210°)4.6 mphClear
8:55 PM39.2 °F28.4 °F65 %29.93 in10.0 miSSW (210°)3.5 mphClear
9:55 PM42.8 °F28.4 °F57 %29.94 in10.0 miCalmClear
10:15 PM41.0 °F28.4 °F61 %29.94 in10.0 miSouth (190°)3.5 mphClear
11:15 PM39.2 °F28.4 °F65 %29.93 in10.0 miCalmClear
Hourly data recorded from KFLP, located miles away from Summit, Arkansas







STORIES FROM OUR PARTNERS